Location: *
(34.8620°S, 39.3380°E)
Time: 02:35:50
(UTC+00:00)

YAOGAN 1 - Pass Details

Date: 06 December 2021
Orbit: 618 x 620 km, 97.9° (Epoch: 27 January)

Event Time Altitude Azimuth Distance (km) Brightness Sun altitude
Rises 17:42:02 0° 181° (S) 2,928 6.7 -13.7°
Reaches altitude 10° 17:44:28 10° 192° (SSW) 2,014 6.0 -14.1°
Maximum altitude 17:48:14 29° 251° (WSW) 1,160 4.7 -14.7°
Drops below altitude 10° 17:51:58 10° 311° (NW) 1,991 5.2 -15.2°
Sets 17:54:21 0° 322° (NW) 2,889 6.0 -15.6°
